Weather History for Pinedale, WY

Change the Weather History Date:

Saturday, November 24, 2012

  Actual Average (KBPI) Record (KBPI)
Temperature  
Mean Temperature 29 °F 19 °F  
Max Temperature 44 °F 33 °F 53 °F (2012)
Min Temperature 14 °F 6 °F -18 °F (2010)
Degree Days  
Heating Degree Days 36 46  
Month to date heating degree days 951  
Since 1 July heating degree days 2531  
Cooling Degree Days 0 0  
Month to date cooling degree days 0  
Year to date cooling degree days 35  
Moisture  
Dew Point 21 °F    
Average Humidity 74    
Maximum Humidity 100    
Minimum Humidity 34    
Precipitation  
Precipitation 0.00 in 0.00 in 0.09 in (2002)
Month to date precipitation 0.17  
Year to date precipitation 6.14  
Sea Level Pressure  
Sea Level Pressure 30.17 in    
Wind  
Wind Speed 5 mph (WNW)    
Max Wind Speed 13 mph    
Max Gust Speed -    
Visibility 10 miles    
Events      
T = Trace of Precipitation, MM = Missing Value Source: NWS Daily Summary

Daily Weather History Graph

Daily Weather History Graph

Search for Another Location

Airport:

Trip Planner

Search our weather history database for the weather conditions in past years. The results will help you decide how hot, cold, wet, or windy it might be!

Date:

Astronomy

Nov. 24, 2012 Rise Set
Actual Time 7:22 AM MST 4:49 PM MST
Civil Twilight 6:51 AM MST 5:20 PM MST
Nautical Twilight 6:16 AM MST 5:55 PM MST
Astronomical Twilight 5:42 AM MST 6:28 PM MST
Moon 2:39 PM MST (11/24) 3:38 AM MST (11/24)
Length of Visible Light 10h 28m
Length of Day
9h 26m
Waxing Gibbous, 87% of the Moon is Illuminated
Nov 24
Waxing Gibbous
Nov 28
Full
Dec 6
Last Quarter
Dec 13
New
Dec 19
First Quarter

Hourly Weather History & Observations

Time (MST) Temp. Windchill Dew Point Humidity Pressure Visibility Wind Dir Wind Speed Gust Speed Precip Events Conditions
12:35 AM 17.6 °F 8.2 °F 17.6 °F 100% 30.31 in 10.0 mi NW 6.9 mph - N/A   Scattered Clouds
1:15 AM 17.6 °F 10.7 °F 15.8 °F 93% 30.30 in 10.0 mi West 4.6 mph - N/A   Scattered Clouds
1:55 AM 17.6 °F 10.7 °F 15.8 °F 93% 30.30 in 10.0 mi WNW 4.6 mph - N/A   Clear
2:15 AM 17.6 °F 9.3 °F 15.8 °F 93% 30.29 in 10.0 mi WNW 5.8 mph - N/A   Clear
2:35 AM 17.6 °F 9.3 °F 15.8 °F 93% 30.29 in 10.0 mi WNW 5.8 mph - N/A   Clear
2:55 AM 17.6 °F 9.3 °F 15.8 °F 93% 30.29 in 10.0 mi WNW 5.8 mph - N/A   Clear
3:15 AM 17.6 °F 12.3 °F 15.8 °F 93% 30.28 in 10.0 mi WNW 3.5 mph - N/A   Clear
3:35 AM 17.6 °F 10.7 °F 14.0 °F 86% 30.27 in 10.0 mi WNW 4.6 mph - N/A   Clear
3:55 AM 17.6 °F 12.3 °F 14.0 °F 86% 30.27 in 10.0 mi NW 3.5 mph - N/A   Scattered Clouds
4:15 AM 15.8 °F 10.2 °F 14.0 °F 93% 30.27 in 10.0 mi WNW 3.5 mph - N/A   Scattered Clouds
4:35 AM 15.8 °F 6.1 °F 14.0 °F 93% 30.27 in 10.0 mi WNW 6.9 mph - N/A   Scattered Clouds
4:55 AM 15.8 °F 5.1 °F 14.0 °F 93% 30.27 in 10.0 mi West 8.1 mph - N/A   Clear
5:15 AM 15.8 °F 6.1 °F 14.0 °F 93% 30.26 in 10.0 mi West 6.9 mph - N/A   Scattered Clouds
5:35 AM 15.8 °F 7.2 °F 14.0 °F 93% 30.25 in 10.0 mi WNW 5.8 mph - N/A   Scattered Clouds
5:55 AM 14.0 °F 5.1 °F 14.0 °F 100% 30.25 in 10.0 mi NW 5.8 mph - N/A   Clear
6:15 AM 14.0 °F - 14.0 °F 100% 30.24 in 10.0 mi Calm Calm - N/A   Clear
6:35 AM 15.8 °F 6.1 °F 14.0 °F 93% 30.24 in 10.0 mi NW 6.9 mph - N/A   Clear
6:55 AM 17.6 °F 9.3 °F 14.0 °F 86% 30.24 in 10.0 mi West 5.8 mph - N/A   Clear
7:15 AM 15.8 °F 10.2 °F 14.0 °F 93% 30.24 in 10.0 mi West 3.5 mph - N/A   Scattered Clouds
7:35 AM 17.6 °F 10.7 °F 14.0 °F 86% 30.24 in 10.0 mi WNW 4.6 mph - N/A   Clear
7:55 AM 17.6 °F 12.3 °F 14.0 °F 86% 30.23 in 10.0 mi West 3.5 mph - N/A   Clear
8:15 AM 17.6 °F - 15.8 °F 93% 30.23 in 10.0 mi Calm Calm - N/A   Clear
8:35 AM 19.4 °F 12.8 °F 17.6 °F 93% 30.24 in 10.0 mi West 4.6 mph - N/A   Clear
8:55 AM 21.2 °F 16.4 °F 19.4 °F 93% 30.24 in 10.0 mi WNW 3.5 mph - N/A   Clear
9:15 AM 23.0 °F 15.8 °F 19.4 °F 86% 30.24 in 10.0 mi NW 5.8 mph - N/A   Clear
9:35 AM 26.6 °F 20.0 °F 21.2 °F 80% 30.24 in 10.0 mi WNW 5.8 mph - N/A   Clear
9:55 AM 28.4 °F 24.6 °F 23.0 °F 80% 30.24 in 10.0 mi West 3.5 mph - N/A   Clear
10:15 AM 30.2 °F - 23.0 °F 75% 30.23 in 10.0 mi Calm Calm - N/A   Scattered Clouds
10:35 AM 32.0 °F - 24.8 °F 75% 30.22 in 10.0 mi Calm Calm - N/A   Scattered Clouds
10:55 AM 33.8 °F - 24.8 °F 70% 30.21 in 10.0 mi Calm Calm - N/A   Scattered Clouds
11:15 AM 37.4 °F - 23.0 °F 56% 30.20 in 10.0 mi Calm Calm - N/A   Mostly Cloudy
11:35 AM 41.0 °F - 23.0 °F 49% 30.19 in 10.0 mi Calm Calm - N/A   Overcast
11:55 AM 41.0 °F - 23.0 °F 49% 30.18 in 10.0 mi Calm Calm - N/A   Overcast
12:15 PM 41.0 °F - 23.0 °F 49% 30.17 in 10.0 mi Calm Calm - N/A   Overcast
12:35 PM 44.6 °F 41.4 °F 17.6 °F 34% 30.16 in 10.0 mi NNW 5.8 mph - N/A   Overcast
12:55 PM 44.6 °F 41.4 °F 17.6 °F 34% 30.15 in 10.0 mi NNW 5.8 mph - N/A   Overcast
1:15 PM 44.6 °F 41.4 °F 17.6 °F 34% 30.14 in 10.0 mi WNW 5.8 mph - N/A   Overcast
1:35 PM 44.6 °F 42.2 °F 17.6 °F 34% 30.14 in 10.0 mi West 4.6 mph - N/A   Mostly Cloudy
1:55 PM 42.8 °F 41.1 °F 17.6 °F 36% 30.13 in 10.0 mi West 3.5 mph - N/A   Scattered Clouds
2:15 PM 44.6 °F 40.7 °F 17.6 °F 34% 30.13 in 10.0 mi NW 6.9 mph - N/A   Scattered Clouds
2:35 PM 44.6 °F 41.4 °F 17.6 °F 34% 30.13 in 10.0 mi North 5.8 mph - N/A   Overcast
2:55 PM 44.6 °F 40.7 °F 19.4 °F 37% 30.12 in 10.0 mi NW 6.9 mph - N/A   Overcast
3:15 PM 44.6 °F 42.2 °F 19.4 °F 37% 30.11 in 10.0 mi NNW 4.6 mph - N/A   Overcast
3:35 PM 42.8 °F 40.1 °F 21.2 °F 42% 30.11 in 10.0 mi NW 4.6 mph - N/A   Overcast
3:55 PM 41.0 °F 36.4 °F 23.0 °F 49% 30.11 in 10.0 mi NW 6.9 mph - N/A   Overcast
4:15 PM 41.0 °F 34.7 °F 23.0 °F 49% 30.11 in 10.0 mi WNW 10.4 mph - N/A   Overcast
4:35 PM 41.0 °F 33.9 °F 23.0 °F 49% 30.11 in 10.0 mi NW 12.7 mph - N/A   Overcast
4:55 PM 39.2 °F 32.5 °F 24.8 °F 56% 30.11 in 10.0 mi WNW 10.4 mph - N/A   Overcast
5:15 PM 37.4 °F 31.4 °F 26.6 °F 65% 30.11 in 10.0 mi WNW 8.1 mph - N/A   Mostly Cloudy
5:35 PM 35.6 °F 31.7 °F 26.6 °F 70% 30.11 in 10.0 mi North 4.6 mph - N/A   Mostly Cloudy
5:55 PM 33.8 °F 29.6 °F 26.6 °F 75% 30.10 in 10.0 mi North 4.6 mph - N/A   Overcast
6:15 PM 33.8 °F 29.6 °F 26.6 °F 75% 30.10 in 10.0 mi West 4.6 mph - N/A   Overcast
6:35 PM 35.6 °F 29.2 °F 26.6 °F 70% 30.09 in 10.0 mi WNW 8.1 mph - N/A   Overcast
6:55 PM 35.6 °F 29.2 °F 26.6 °F 70% 30.09 in 10.0 mi WNW 8.1 mph - N/A   Overcast
7:15 PM 35.6 °F 29.9 °F 26.6 °F 70% 30.08 in 10.0 mi NW 6.9 mph - N/A   Overcast
7:35 PM 35.6 °F 31.7 °F 28.4 °F 75% 30.08 in 10.0 mi West 4.6 mph - N/A   Overcast
7:55 PM 33.8 °F 28.6 °F 28.4 °F 81% 30.08 in 10.0 mi West 5.8 mph - N/A   Overcast
8:15 PM 33.8 °F - 28.4 °F 81% 30.08 in 10.0 mi Calm Calm - N/A   Overcast
8:35 PM 35.6 °F - 28.4 °F 75% 30.08 in 10.0 mi Calm Calm - N/A   Overcast
8:55 PM 35.6 °F 29.9 °F 28.4 °F 75% 30.09 in 10.0 mi NW 6.9 mph - N/A   Overcast
9:15 PM 35.6 °F 30.7 °F 30.2 °F 81% 30.08 in 10.0 mi NNW 5.8 mph - N/A   Overcast
9:35 PM 33.8 °F 29.6 °F 30.2 °F 87% 30.08 in 10.0 mi NNW 4.6 mph - N/A   Overcast
9:55 PM 33.8 °F 30.8 °F 30.2 °F 87% 30.07 in 10.0 mi West 3.5 mph - N/A   Overcast
10:15 PM 33.8 °F - 30.2 °F 87% 30.07 in 10.0 mi Calm Calm - N/A   Overcast
10:35 PM 32.0 °F - 30.2 °F 93% 30.07 in 10.0 mi Calm Calm - N/A   Overcast
10:55 PM 33.8 °F 29.6 °F 30.2 °F 87% 30.06 in 10.0 mi West 4.6 mph - N/A   Overcast
11:15 PM 32.0 °F 28.7 °F 30.2 °F 93% 30.05 in 10.0 mi West 3.5 mph - N/A   Overcast
11:35 PM 32.0 °F 28.7 °F 30.2 °F 93% 30.05 in 10.0 mi West 3.5 mph - N/A   Overcast
11:55 PM 32.0 °F - 32.0 °F 100% 30.05 in 10.0 mi Calm Calm - N/A   Overcast